Lexington Weather

Lexington, Massachusetts, USA

77°F
8/3/2020 7:32am 
  • Lexington Conditions: Clear
  • Temperature: 76.8°F / 24.9°CWarmer 0.2°F than last hour.
  • Dew Point: 73.6°FDecreased 1.8°Fsince last hour.
  • Relative Humidity: 90%Decreased 6.0% since last hour.
  • Wind: Wind from SW SW 5 mph, 10-min avg: 3 mph, gust: 9 mph
  • Barometer: 29.84 in Steady
  • Visibility: 10 miles
  • Rain Today: 0.00 in
  •   

Regional Weather Roundup
for Boston / Norton, MA

        
000
ASUS41 KBOX 310804
RWRBOX

REGIONAL WEATHER ROUNDUP
NATIONAL WEATHER SERVICE BOSTON/NORTON MA
400 AM EDT FRI JUL 31 2020

NOTE:  "FAIR" INDICATES FEW OR NO CLOUDS BELOW 12,000 FEET WITH NO 
SIGNIFICANT WEATHER AND/OR OBSTRUCTIONS TO VISIBILITY.

MAZALL-310900-
EASTERN MASSACHUSETTS
  
CITY           SKY/WX    TMP DP  RH WIND       PRES   REMARKS
BOSTON         CLOUDY    74  59  59 NW6       29.80R                  
BEVERLY        MOCLDY    69  64  84 W3        29.79S                  
LAWRENCE       MOCLDY    70  60  70 NW3       29.82S                  
BEDFORD        CLOUDY    67  64  90 CALM      29.79S                  
BLUE HILL      NOT AVBL                                               
NORWOOD        CLOUDY    69  65  86 CALM      29.79F                  
MARSHFIELD     CLOUDY    73  70  88 W3        29.78F                  
PLYMOUTH       CLOUDY    72  70  93 CALM      29.79F                  
TAUNTON        CLOUDY    71  68  90 CALM      29.78F FOG              
NEW BEDFORD    MOCLDY    71  70  96 CALM      29.78F                  
$$

MAZALL-310900-
CAPE COD AND THE ISLANDS
  
CITY           SKY/WX    TMP DP  RH WIND       PRES   REMARKS
FALMOUTH       CLOUDY    73  73 100 CALM      29.79F FOG              
HYANNIS        MOCLDY    75  74  96 SW3       29.77F FOG              
CHATHAM        CLOUDY    76  74  93 SW3       29.79F                  
PROVINCETOWN   CLOUDY    73  70  90 W6        29.79S                  
NANTUCKET      FOG       74  73  97 SW7       29.78F VSB 1/2          
MARTHAS VNYRD  CLOUDY    76  75  97 W5        29.79F FOG              
$$
 
MAZALL-310900-
CENTRAL AND WESTERN MASSACHUSETTS
  
CITY           SKY/WX    TMP DP  RH WIND       PRES   REMARKS
WORCESTER      CLOUDY    69  61  75 CALM      29.84S                  
FITCHBURG      MOCLDY    66  63  90 NW3       29.82S                  
ORANGE         MOCLDY    65  64  97 CALM      29.84S                  
SPRINGFIELD    CLOUDY    67  66  94 CALM      29.81S                  
WESTFIELD      CLOUDY    68  64  87 S3        29.82R                  
NORTH ADAMS    MOCLDY    61  59  93 CALM      29.85S                  
PITTSFIELD     MOCLDY    62  60  93 CALM      29.85S                  
$$
 
RIZALL-310900-
RHODE ISLAND
  
CITY           SKY/WX    TMP DP  RH WIND       PRES   REMARKS
PROVIDENCE     CLOUDY    75  68  78 W6        29.80F                  
NEWPORT        CLOUDY    73  70  90 CALM      29.79F                  
BLOCK ISLAND   CLOUDY    74  73  97 NW5       29.79F FOG              
SMITHFIELD     CLOUDY    69  66  90 NW3       29.82F                  
WESTERLY       CLOUDY    73  69  87 CALM      29.81S                  
$$
 
CTZALL-310900-
CONNECTICUT
  
CITY           SKY/WX    TMP DP  RH WIND       PRES   REMARKS
BRADLEY INTL   CLOUDY    72  64  76 S6        29.82R                  
HARTFORD       CLOUDY    74  68  81 S3        29.82R                  
BRIDGEPORT     RAIN      72  69  90 W5        29.86S FOG              
DANBURY        LGT RAIN  70  67  90 SE10      29.86S                  
GROTON         LGT RAIN  73  67  81 NW14      29.82R                  
NEW HAVEN      LGT RAIN  70  68  93 CALM      29.85R FOG              
CHESTER        NOT AVBL                                               
MERIDEN        LGT RAIN  71  67  87 CALM      29.83S                  
WILLIMANTIC    CLOUDY    70  67  90 CALM      29.83R                  
OXFORD         LGT RAIN  69  67  93 CALM      29.88R                  
$$

MEZ002-015-021-024-NHZ003-005-008-011-012-014-VTZ005-008-310900-
NORTHERN NEW ENGLAND
  
CITY           SKY/WX    TMP DP  RH WIND       PRES   REMARKS
PORTLAND ME    CLEAR     68  63  84 NW3       29.79S                  
BANGOR ME      CLEAR     63  60  90 CALM      29.77F                  
CONCORD NH     PTCLDY    60  58  92 CALM      29.82S                  
MANCHESTER NH  MOCLDY    70  59  68 CALM      29.80R                  
NASHUA NH      MOCLDY    66  64  93 CALM      29.82R                  
PORTSMOUTH NH  MOCLDY    65  59  81 W6        29.78S                  
JAFFREY NH     MOCLDY    61  58  90 CALM      29.85S                  
KEENE NH       FOG       60  60 100 CALM      29.84S VSB 1/2          
BURLINGTON VT  CLEAR     63  60  90 CALM      29.84S                  
MT. WASHINGTON FOG       46  46 100 NW26G32     N/A  VSB 1/8          
$$

NYZ052-076-310900-
EASTERN NEW YORK
  
CITY           SKY/WX    TMP DP  RH WIND       PRES   REMARKS
ALBANY         MOCLDY    60  58  92 CALM      29.83F                  
NEW YORK CITY  CLOUDY    73  68  84 E10       29.80F                  
$$
 
ANZALL-310900-
MARINE OBSERVATIONS
  
STATION/POSITION TIME  TEMP    WIND        PRES    VSBY  WAVE
                       AIR SEA DIR/SP/G                  HT/PER
                 (UTC) (F)     (DEG/KT/KT) (MB)    (MI)  (FT/S)
BOSTON BUOY      0650   73 72  270/  6/  6 1007.3          1/11
BUZZARDS BAY     0700          250/  7/  8 1010.1S
NANTUCKET SOUND  0740      76  260/  8/  8 1008.0
MASS BAY-STELLWA 0704   70     330/  4/  6 1006.7R  1 7/8  1/ 6
ISLE OF SHOALS   0700   69     300/  7/  7 1008.3F
S OF BLOCK IS    0726      77                N/A           3/ 6
$$

......................KEY.........................
  SKY/WX - SKY CONDITION/PRESENT WEATHER
  TMP    - TEMPERATURE IN FAHRENHEIT
  DWPT   - DEWPOINT IN FAHRENHEIT
  RH     - RELATIVE HUMIDITY IN PERCENT
  WIND   - DIRECTION AND SPEED IN MPH
  PRES   - MEAN SEA LEVEL PRESSURE IN INCHES OF HG
  WCI    - WIND CHILL INDEX
  VSB    - VISIBILITY IN MILES
  HX     - HEAT INDEX
  TC     - TEMPERATURE IN CELSIUS
  VRB    - VARIABLE WIND DIRECTION
  N/A    - NOT AVAILABLE
  
      

Other recent Regional Weather Roundups

Mon Aug 3, 7:04am

Mon Aug 3, 6:04am

Mon Aug 3, 5:04am

Mon Aug 3, 4:04am

Mon Aug 3, 3:04am

Mon Aug 3, 2:04am

Mon Aug 3, 1:04am

Mon Aug 3, 12:05am

Sun Aug 2, 11:04pm

Sun Aug 2, 10:04pm

Sun Aug 2, 9:04pm

Sun Aug 2, 8:04pm

Sun Aug 2, 7:04pm

Sun Aug 2, 6:04pm

Sun Aug 2, 5:04pm

Sun Aug 2, 4:05pm

Sun Aug 2, 3:04pm

Sun Aug 2, 2:05pm

Sun Aug 2, 1:04pm

Sun Aug 2, 12:04pm

Sun Aug 2, 11:04am

Sun Aug 2, 10:04am

Sun Aug 2, 9:05am

Sun Aug 2, 8:05am

Sun Aug 2, 7:04am

Sun Aug 2, 6:04am

Sun Aug 2, 5:04am

Sun Aug 2, 4:05am

Sun Aug 2, 3:04am

Sun Aug 2, 2:04am

Sun Aug 2, 1:04am

Sun Aug 2, 12:05am

Sat Aug 1, 11:04pm

Sat Aug 1, 10:04pm

Sat Aug 1, 9:04pm

Sat Aug 1, 8:05pm

Sat Aug 1, 7:04pm

Sat Aug 1, 6:04pm

Sat Aug 1, 5:05pm

Sat Aug 1, 4:05pm

Sat Aug 1, 3:04pm

Sat Aug 1, 2:04pm

Sat Aug 1, 1:04pm

Sat Aug 1, 12:04pm

Sat Aug 1, 11:05am

Sat Aug 1, 10:05am

Sat Aug 1, 9:04am

Sat Aug 1, 8:04am

Sat Aug 1, 7:04am

Sat Aug 1, 6:04am

Sat Aug 1, 5:04am

Sat Aug 1, 4:05am

Sat Aug 1, 3:04am

Sat Aug 1, 2:04am

Sat Aug 1, 1:04am

Sat Aug 1, 12:05am

Fri Jul 31, 11:05pm

Fri Jul 31, 10:04pm

Fri Jul 31, 9:04pm

Fri Jul 31, 8:05pm

Fri Jul 31, 7:05pm

Fri Jul 31, 6:04pm

Fri Jul 31, 5:04pm

Fri Jul 31, 4:05pm

Fri Jul 31, 3:04pm

Fri Jul 31, 2:05pm

Fri Jul 31, 1:04pm

Fri Jul 31, 12:04pm

Fri Jul 31, 11:04am

Fri Jul 31, 10:04am

Fri Jul 31, 9:04am

Fri Jul 31, 8:04am

Fri Jul 31, 7:04am

Fri Jul 31, 6:04am

Fri Jul 31, 5:04am

Fri Jul 31, 3:04am

Fri Jul 31, 2:04am

Fri Jul 31, 1:05am

Fri Jul 31, 12:04am

Thu Jul 30, 11:04pm

Thu Jul 30, 10:04pm

Thu Jul 30, 9:04pm

Thu Jul 30, 8:04pm

Thu Jul 30, 7:05pm

Thu Jul 30, 6:04pm

Thu Jul 30, 5:04pm

Thu Jul 30, 4:05pm

Thu Jul 30, 3:04pm

Thu Jul 30, 2:05pm

Thu Jul 30, 1:04pm

Thu Jul 30, 12:04pm

Thu Jul 30, 11:04am

Thu Jul 30, 10:05am

Thu Jul 30, 9:04am

Thu Jul 30, 8:04am

Thu Jul 30, 7:04am

Thu Jul 30, 6:04am

Thu Jul 30, 5:04am

Thu Jul 30, 4:04am

Thu Jul 30, 3:04am

Thu Jul 30, 2:04am

Thu Jul 30, 1:04am

Thu Jul 30, 12:04am

Wed Jul 29, 11:04pm

Wed Jul 29, 10:04pm

Wed Jul 29, 9:04pm

Wed Jul 29, 8:04pm

Wed Jul 29, 7:05pm

Wed Jul 29, 6:05pm

Wed Jul 29, 5:04pm

Wed Jul 29, 4:04pm

Wed Jul 29, 3:04pm

Wed Jul 29, 2:04pm

Wed Jul 29, 1:05pm

Wed Jul 29, 12:05pm

Wed Jul 29, 11:04am

Wed Jul 29, 10:04am

Wed Jul 29, 9:04am

Wed Jul 29, 8:04am

Wed Jul 29, 7:04am

Wed Jul 29, 6:04am

Wed Jul 29, 5:04am

Wed Jul 29, 4:04am

Wed Jul 29, 3:04am

Wed Jul 29, 2:04am

Wed Jul 29, 1:04am

Wed Jul 29, 12:05am

Tue Jul 28, 11:05pm

Tue Jul 28, 10:05pm

Tue Jul 28, 9:04pm

Tue Jul 28, 8:04pm

Tue Jul 28, 7:04pm

Tue Jul 28, 6:04pm

Tue Jul 28, 5:04pm

Tue Jul 28, 4:05pm

Tue Jul 28, 3:05pm

Tue Jul 28, 2:04pm

Tue Jul 28, 1:05pm

Tue Jul 28, 12:04pm

Tue Jul 28, 11:04am

Tue Jul 28, 10:04am

Tue Jul 28, 9:04am

Tue Jul 28, 8:04am

Tue Jul 28, 7:04am

Tue Jul 28, 6:04am

Tue Jul 28, 5:04am

Tue Jul 28, 4:04am

Tue Jul 28, 3:04am

Tue Jul 28, 2:04am

Tue Jul 28, 1:04am

Tue Jul 28, 12:05am

Mon Jul 27, 11:04pm

Mon Jul 27, 10:05pm

Mon Jul 27, 9:05pm

Mon Jul 27, 8:04pm

Mon Jul 27, 7:04pm

Mon Jul 27, 6:05pm

Mon Jul 27, 5:05pm

Mon Jul 27, 4:04pm

Mon Jul 27, 3:04pm

Mon Jul 27, 2:04pm

Mon Jul 27, 1:04pm

Mon Jul 27, 12:04pm

Mon Jul 27, 11:04am

Mon Jul 27, 10:04am

Mon Jul 27, 9:04am

Mon Jul 27, 8:04am

Meta data:

ID: 74aaec87-aa14-4514-a0d7-9f579008e481
Link: https://api.weather.gov/products/74aaec87-aa14-4514-a0d7-9f579008e481